GW5669 Weather Reports


time (UTC)temp
C
wind
direction
speed
KPH
gust
KPH
rain 1hr
cm
rain 24hr
cm
rain mn
cm
humidity
%
barometer
mb
20260504024055 8 79 1.6 1.6 0.00 0.00 0.00 53 1017.0
20260504023552 8 79 0.0 0.0 0.00 0.00 0.00 54 1017.0
20260504023048 8 79 0.0 0.0 0.00 0.00 0.00 63 1017.0
20260504022543 8 79 0.0 1.6 0.00 0.00 0.00 53 1016.7
20260504022040 8 79 0.0 0.0 0.00 0.00 0.00 48 1016.9
20260504021538 8 79 0.0 1.6 0.00 0.00 0.00 47 1017.0
20260504021034 8 79 1.6 1.6 0.00 0.00 0.00 50 1016.9
20260504020531 8 95 0.0 3.2 0.00 0.00 0.00 54 1016.8
20260504020028 7 352 1.6 3.2 0.00 0.00 0.00 52 1016.7
20260504015524 7 26 1.6 1.6 0.00 0.00 0.00 56 1016.6
20260504015020 7 346 1.6 3.2 0.00 0.00 0.00 60 1016.5
20260504014516 8 1 1.6 1.6 0.00 0.00 0.00 50 1016.3
20260504014014 8 1 0.0 0.0 0.00 0.00 0.00 48 1016.6
20260504013512 8 1 0.0 0.0 0.00 0.00 0.00 48 1016.5
20260504013009 8 1 0.0 1.6 0.00 0.00 0.00 49 1016.4
20260504012506 8 347 1.6 3.2 0.00 0.00 0.00 50 1016.5
20260504012004 7 348 1.6 1.6 0.00 0.00 0.00 53 1016.2
20260504011500 8 349 3.2 3.2 0.00 0.00 0.00 55 1016.3
20260504010955 10 344 0.0 3.2 0.00 0.00 0.00 49 1016.0
20260504010452 10 347 0.0 1.6 0.00 0.00 0.00 42 1015.9
20260504005948 10 347 1.6 3.2 0.00 0.00 0.00 43 1015.9
20260504005445 10 352 0.0 1.6 0.00 0.00 0.00 39 1015.9
20260504004943 10 352 0.0 0.0 0.00 0.00 0.00 40 1015.7
20260504004440 10 353 0.0 0.0 0.00 0.00 0.00 40 1015.9
20260504003937 10 352 0.0 0.0 0.00 0.00 0.00 40 1015.8
20260504003433 11 352 0.0 1.6 0.00 0.00 0.00 40 1015.8
20260504002930 11 353 0.0 0.0 0.00 0.00 0.00 40 1015.9
20260504002427 11 353 0.0 0.0 0.00 0.00 0.00 40 1015.7
20260504001924 11 353 1.6 1.6 0.00 0.00 0.00 39 1015.7
20260504001422 11 0 0.0 0.0 0.00 0.00 0.00 36 1015.7
20260504000918 11 350 1.6 1.6 0.00 0.00 0.00 37 1015.8
20260504000416 12 20 0.0 1.6 0.00 0.00 0.00 38 1015.7
20260503235912 12 14 0.0 0.0 0.00 0.00 0.00 38 1015.6
20260503235410 13 14 0.0 1.6 0.00 0.00 0.00 35 1015.7
20260503234908 14 14 0.0 0.0 0.00 0.00 0.00 34 1015.6
20260503234405 15 14 0.0 0.0 0.00 0.00 0.00 34 1015.5
20260503233903 16 14 0.0 0.0 0.00 0.00 0.00 35 1015.6
20260503233359 16 14 0.0 1.6 0.00 0.00 0.00 34 1015.5
20260503232855 16 14 0.0 0.0 0.00 0.00 0.00 32 1015.7
20260503232353 16 14 0.0 0.0 0.00 0.00 0.00 32 1015.8
20260503231850 16 265 3.2 4.8 0.00 0.00 0.00 28 1015.6
20260503231347 16 335 1.6 3.2 0.00 0.00 0.00 26 1015.7
20260503230843 16 308 3.2 3.2 0.00 0.00 0.00 27 1015.5
20260503230340 16 284 3.2 4.8 0.00 0.00 0.00 27 1015.6
20260503225838 16 267 6.4 6.4 0.00 0.00 0.00 28 1015.5
20260503225334 16 250 4.8 9.7 0.00 0.00 0.00 30 1015.7
20260503224830 17 71 1.6 9.7 0.00 0.00 0.00 25 1015.5
20260503224327 17 88 0.0 1.6 0.00 0.00 0.00 27 1015.4
20260503223825 17 283 3.2 6.4 0.00 0.00 0.00 26 1015.4
20260503223323 17 314 3.2 4.8 0.00 0.00 0.00 26 1015.5
20260503222818 17 88 1.6 4.8 0.00 0.00 0.00 25 1015.4
20260503222317 17 119 3.2 6.4 0.00 0.00 0.00 25 1015.4
20260503221815 17 244 1.6 4.8 0.00 0.00 0.00 29 1015.2
20260503221313 17 304 0.0 4.8 0.00 0.00 0.00 26 1015.4
20260503220809 17 288 6.4 6.4 0.00 0.00 0.00 26 1015.3
20260503220306 17 308 4.8 6.4 0.00 0.00 0.00 27 1015.3
20260503215802 17 302 4.8 14.5 0.00 0.00 0.00 24 1015.3
20260503215259 17 248 4.8 6.4 0.00 0.00 0.00 29 1015.5
20260503214757 17 327 3.2 6.4 0.00 0.00 0.00 26 1015.4
20260503214254 16 57 1.6 12.9 0.00 0.00 0.00 27 1015.4
20260503213752 17 260 8.0 16.1 0.00 0.00 0.00 25 1015.7
20260503213249 17 128 4.8 9.7 0.00 0.00 0.00 24 1015.6
20260503212746 17 287 4.8 11.3 0.00 0.00 0.00 28 1015.5
20260503212244 17 280 11.3 12.9 0.00 0.00 0.00 27 1015.6
20260503211741 17 305 4.8 9.7 0.00 0.00 0.00 25 1015.7
20260503211237 16 74 1.6 3.2 0.00 0.00 0.00 28 1015.7
20260503210732 17 267 14.5 17.7 0.00 0.00 0.00 25 1015.7
20260503210230 17 301 6.4 9.7 0.00 0.00 0.00 28 1015.5
20260503205725 16 284 3.2 6.4 0.00 0.00 0.00 26 1015.7
20260503205222 17 332 11.3 16.1 0.00 0.00 0.00 26 1015.7
20260503204718 16 191 3.2 4.8 0.00 0.00 0.00 29 1015.7
20260503204216 16 273 12.9 24.1 0.00 0.00 0.00 26 1015.7
20260503203713 16 358 6.4 9.7 0.00 0.00 0.00 25 1015.8
20260503203211 16 287 6.4 9.7 0.00 0.00 0.00 25 1016.0
20260503202708 16 277 6.4 16.1 0.00 0.00 0.00 26 1015.9
20260503202206 16 199 11.3 14.5 0.00 0.00 0.00 30 1015.9
20260503201703 16 280 11.3 17.7 0.00 0.00 0.00 27 1015.9
20260503201200 16 294 9.7 14.5 0.00 0.00 0.00 28 1016.3
20260503200656 16 322 12.9 25.7 0.00 0.00 0.00 27 1016.2
20260503200153 17 309 6.4 9.7 0.00 0.00 0.00 29 1016.4
20260503195650 16 331 4.8 6.4 0.00 0.00 0.00 29 1016.3
20260503195147 16 3 1.6 3.2 0.00 0.00 0.00 25 1016.5
20260503194644 16 117 6.4 9.7 0.00 0.00 0.00 26 1016.5
20260503194139 16 292 4.8 16.1 0.00 0.00 0.00 29 1016.8
20260503193637 16 264 12.9 20.9 0.00 0.00 0.00 28 1016.7
20260503193132 16 315 6.4 14.5 0.00 0.00 0.00 24 1016.6
20260503192628 16 44 3.2 11.3 0.00 0.00 0.00 31 1016.7
20260503192124 15 305 9.7 17.7 0.00 0.00 0.00 28 1016.6
20260503191621 15 258 6.4 11.3 0.00 0.00 0.00 28 1016.8
20260503191118 15 247 12.9 17.7 0.00 0.00 0.00 29 1016.8
20260503190615 15 275 8.0 12.9 0.00 0.00 0.00 29 1016.8
20260503190112 15 278 8.0 12.9 0.00 0.00 0.00 29 1017.1
20260503185608 15 304 11.3 22.5 0.00 0.00 0.00 30 1017.0
20260503185108 15 153 3.2 11.3 0.00 0.00 0.00 30 1017.3
20260503184604 15 307 12.9 25.7 0.00 0.00 0.00 28 1017.2
20260503184100 15 264 9.7 14.5 0.00 0.00 0.00 33 1017.5
20260503183557 15 282 11.3 17.7 0.00 0.00 0.00 30 1017.3
20260503183054 15 280 6.4 9.7 0.00 0.00 0.00 31 1017.5
20260503182553 15 270 12.9 20.9 0.00 0.00 0.00 32 1017.5
20260503182050 15 0 3.2 12.9 0.00 0.00 0.00 29 1017.6
20260503181547 15 275 6.4 14.5 0.00 0.00 0.00 31 1017.6
20260503181043 15 285 3.2 9.7 0.00 0.00 0.00 34 1017.6
20260503180541 13 241 6.4 12.9 0.00 0.00 0.00 33 1017.7
20260503180038 14 284 19.3 27.4 0.00 0.00 0.00 32 1017.6
20260503175535 13 263 9.7 11.3 0.00 0.00 0.00 33 1017.6
20260503175033 13 271 9.7 14.5 0.00 0.00 0.00 31 1017.6
20260503174530 14 255 14.5 25.7 0.00 0.00 0.00 32 1017.7
20260503174026 13 304 9.7 16.1 0.00 0.00 0.00 33 1017.4
20260503173521 13 247 12.9 17.7 0.00 0.00 0.00 32 1017.8
20260503173017 13 269 16.1 24.1 0.00 0.00 0.00 33 1017.5
20260503172515 13 218 8.0 14.5 0.00 0.00 0.00 34 1017.7
20260503172012 13 278 8.0 11.3 0.00 0.00 0.00 34 1018.0
20260503171508 13 275 6.4 9.7 0.00 0.00 0.00 34 1017.8
20260503171006 12 254 12.9 22.5 0.00 0.00 0.00 32 1017.8
20260503170502 13 240 14.5 24.1 0.00 0.00 0.00 33 1018.1
20260503150855 10 254 11.3 20.9 0.00 0.00 0.00 40 1019.4
20260503150351 10 257 8.0 20.9 0.00 0.00 0.00 44 1019.4
20260503140315 9 288 6.4 12.9 0.00 0.00 0.00 42 1019.1
20260503131244 7 281 9.7 14.5 0.00 0.00 0.00 45 1019.1
20260503130742 7 185 6.4 6.4 0.00 0.00 0.00 45 1019.1
20260503130239 7 195 4.8 11.3 0.00 0.00 0.00 48 1019.1
20260503120205 7 82 1.6 3.2 0.00 0.00 0.00 48 1019.0
20260503110632 5 236 3.2 4.8 0.00 0.00 0.00 57 1018.6
20260503110130 4 11 0.0 1.6 0.00 0.00 0.00 62 1018.5
20260503081446 3 80 0.0 0.0 0.00 0.00 0.00 69 1016.5
20260503080943 4 80 0.0 0.0 0.00 0.00 0.00 69 1016.6
20260503080439 4 91 0.0 1.6 0.00 0.00 0.00 70 1016.4
20260503072916 5 82 3.2 3.2 0.00 0.00 0.00 69 1016.0
20260503072413 5 83 0.0 1.6 0.00 0.00 0.00 71 1016.0
20260503071909 5 66 0.0 3.2 0.00 0.00 0.00 71 1016.3
20260503071407 5 71 0.0 0.0 0.00 0.00 0.00 73 1016.0
20260503070902 5 71 0.0 0.0 0.00 0.00 0.00 71 1016.2
20260503070400 5 73 0.0 0.0 0.00 0.00 0.00 71 1015.9
20260503060326 5 91 1.6 1.6 0.00 0.00 0.00 73 1015.9
20260503054814 5 83 0.0 0.0 0.00 0.00 0.00 72 1015.8
20260503054310 5 83 1.6 3.2 0.00 0.00 0.00 74 1015.8
20260503053808 4 62 0.0 0.0 0.00 0.00 0.00 74 1015.7
20260503053306 4 62 0.0 0.0 0.00 0.00 0.00 74 1015.8
20260503052802 4 62 0.0 1.6 0.00 0.00 0.00 73 1015.9
20260503052259 5 62 0.0 1.6 0.00 0.00 0.00 72 1015.8
20260503051755 5 56 1.6 1.6 0.00 0.00 0.00 70 1016.0
20260503051252 5 68 0.0 0.0 0.00 0.00 0.00 70 1015.9
20260503050748 5 66 0.0 0.0 0.00 0.00 0.00 69 1015.7
20260503050244 5 68 0.0 1.6 0.00 0.00 0.00 68 1015.8
20260503045742 5 54 0.0 1.6 0.00 0.00 0.00 68 1015.9
20260503045240 5 43 1.6 3.2 0.00 0.00 0.00 67 1015.9
20260503044736 6 42 1.6 4.8 0.00 0.00 0.00 65 1016.0
20260503044233 6 63 1.6 3.2 0.00 0.00 0.00 64 1015.9
20260503043730 6 5 3.2 3.2 0.00 0.00 0.00 63 1015.9
20260503043227 6 357 3.2 6.4 0.00 0.00 0.00 60 1015.9
20260503042723 6 314 6.4 9.7 0.00 0.00 0.00 59 1015.9
20260503042220 6 307 4.8 11.3 0.00 0.00 0.00 58 1015.7
20260503041716 6 300 8.0 12.9 0.00 0.00 0.00 59 1015.8
20260503041214 5 311 4.8 6.4 0.00 0.00 0.00 60 1015.9
20260503040711 5 272 3.2 4.8 0.00 0.00 0.00 62 1015.8
20260503040209 6 252 4.8 4.8 0.00 0.00 0.00 61 1015.8
20260503035705 6 78 0.0 3.2 0.00 0.00 0.00 59 1015.8
20260503035203 6 77 0.0 4.8 0.00 0.00 0.00 58 1015.7
20260503034700 6 71 0.0 0.0 0.00 0.00 0.00 58 1015.6
20260503034157 6 61 1.6 1.6 0.00 0.00 0.00 57 1015.8
20260503033654 6 68 0.0 1.6 0.00 0.00 0.00 56 1015.7
20260503033152 6 73 1.6 1.6 0.00 0.00 0.00 56 1015.8
20260503032650 6 271 0.0 3.2 0.00 0.00 0.00 54 1015.7
20260503032148 7 75 0.0 0.0 0.00 0.00 0.00 54 1015.6
20260503031645 7 67 0.0 1.6 0.00 0.00 0.00 51 1015.6
20260503031143 7 74 0.0 3.2 0.00 0.00 0.00 51 1015.6
20260503030638 7 67 0.0 1.6 0.00 0.00 0.00 52 1015.6
20260503030136 7 72 0.0 1.6 0.00 0.00 0.00 49 1015.5
20260503025632 7 66 0.0 1.6 0.00 0.00 0.00 50 1015.6
20260503025130 7 55 0.0 1.6 0.00 0.00 0.00 48 1015.6
20260503024626 7 64 0.0 3.2 0.00 0.00 0.00 49 1015.5